This demonstration page uses our WeatherBlox Daily Observations layout. Learn more.

Left ArrowRight Arrow

39.08367, -84.50855

Hourly Observations for December 1, 2019

Temp ( °F °C ) Dew Point ( °F °C ) Humidity (%) Winds ( mph kmh ) Pressure ( in mb ) Visibility ( mi km ) Precip ( " mm )
12:53 am 00:53 Cloudy 49 9.4 47 8.3 93 93 WSW 3 6 29.49 999 10 16 N/A
1:53 am 01:53 Cloudy 50 10 50 10 100 100 WSW 5 7 29.46 998 7 11 0.00 0.00
2:53 am 02:53 Cloudy 55 12.8 54 12.2 96 96 SSW 6 9 29.42 996 10 16 0.00 0.00
3:30 am 03:30 Cloudy 58 14.4 56 13.3 93 93 S 14 22 29.41 996 10 16 N/A
3:53 am 03:53 Cloudy 59 15 56 13.3 90 90 SSW 17 28 29.39 995 10 16 N/A
4:25 am 04:25 Cloudy with Light Rain 57 13.9 53 11.7 87 87 WSW 13 20 29.41 996 4 6 0.06 1.52
4:35 am 04:35 Mostly Cloudy 56 13.3 52 11.1 87 87 WSW 10 17 29.41 996 10 16 0.06 1.52
4:53 am 04:53 Mostly Cloudy 55 12.8 51 10.6 87 87 SW 10 17 29.41 996 10 16 0.06 1.52
5:21 am 05:21 Cloudy 55 12.8 50 10 83 83 SW 13 20 29.41 996 10 16 N/A
5:43 am 05:43 Mostly Cloudy 54 12.2 49 9.4 83 83 WSW 13 20 29.41 996 10 16 N/A
5:53 am 05:53 Partly Cloudy 53 11.7 48 8.9 83 83 WSW 10 17 29.43 997 10 16 N/A
6:53 am 06:53 Mostly Clear 46 7.8 43 6.1 89 89 SSW 8 13 29.45 997 10 16 N/A
7:53 am 07:53 Sunny 43 6.1 42 5.6 97 97 SSW 7 11 29.45 997 10 16 N/A
8:53 am 08:53 Sunny 50 10 45 7.2 83 83 S 9 15 29.44 997 10 16 N/A
9:53 am 09:53 Sunny 53 11.7 42 5.6 66 66 SW 15 24 29.44 997 10 16 N/A
10:53 am 10:53 Mostly Cloudy 54 12.2 38 3.3 55 55 WSW 15 24 29.44 997 10 16 N/A
11:53 am 11:53 Cloudy 51 10.6 37 2.8 59 59 WSW 14 22 29.45 997 10 16 N/A
12:53 pm 12:53 Cloudy 45 7.2 35 1.7 68 68 WNW 17 28 29.49 999 10 16 0.00 0.00
1:53 pm 13:53 Cloudy 45 7.2 30 -1.1 56 56 W 12 19 29.50 999 10 16 N/A
2:53 pm 14:53 Cloudy 43 6.1 29 -1.7 58 58 W 21 33 29.53 1000 10 16 N/A
3:53 pm 15:53 Cloudy with Light Rain 41 5 31 -0.6 67 67 W 16 26 29.56 1001 10 16 0.00 0.00
4:53 pm 16:53 Cloudy 41 5 32 undefined 70 70 SW 12 19 29.58 1002 10 16 0.00 0.00
5:53 pm 17:53 Cloudy with Light Rain 41 5 33 0.6 73 73 SW 10 17 29.60 1002 10 16 0.00 0.00
6:39 pm 18:39 Cloudy with Light Rain 39 3.9 34 1.1 82 82 SW 20 31 29.65 1004 10 16 0.00 0.00
6:53 pm 18:53 Cloudy with Light Rain 38 3.3 35 1.7 89 89 SW 13 20 29.62 1003 10 16 0.00 0.00
7:53 pm 19:53 Cloudy 38 3.3 34 1.1 86 86 SW 12 19 29.63 1004 10 16 0.00 0.00
8:53 pm 20:53 Cloudy with Light Rain 38 3.3 34 1.1 86 86 SW 12 19 29.65 1004 10 16 0.00 0.00
9:31 pm 21:31 Cloudy with Light Rain 38 3.3 35 1.7 89 89 SW 10 17 29.68 1005 10 16 0.02 0.51
9:53 pm 21:53 Cloudy with Light Rain 37 2.8 35 1.7 93 93 SSW 8 13 29.65 1004 10 16 0.02 0.51
10:53 pm 22:53 Cloudy 37 2.8 34 1.1 89 89 SW 9 15 29.66 1004 10 16 0.00 0.00
11:45 pm 23:45 Cloudy with Light Rain 37 2.8 34 1.1 89 89 SW 9 15 29.68 1005 10 16 0.00 0.00
11:53 pm 23:53 Cloudy with Light Rain 38 3.3 34 1.1 86 86 SW 14 22 29.66 1004 10 16 0.00 0.00

Powered by AerisWeather